This demonstration page uses our WeatherBlox Daily Observations layout. Learn more.

Left ArrowRight Arrow

38.88101, -77.10428

Hourly Observations for April 17, 2021

Temp ( °F °C ) Dew Point ( °F °C ) Humidity (%) Winds ( mph kmh ) Pressure ( in mb ) Visibility ( mi km ) Precip ( " mm )
12:52 am 00:52 Mostly Clear 48 8.9 33 0.6 56 56 NNW 7 11 29.83 1010 10 16.0934 0 0
1:52 am 01:52 Mostly Clear 47 8.3 33 0.6 59 59 WNW 5 7 29.82 1010 10 16.0934 0 0
2:52 am 02:52 Mostly Clear 48 8.9 33 0.6 56 56 WNW 5 7 29.82 1010 10 16.0934 0 0
3:52 am 03:52 Partly Cloudy 47 8.3 34 1.1 61 61 Calm 29.82 1010 10 16.0934 0 0
4:52 am 04:52 Partly Cloudy 43 6.1 35 1.7 74 74 W 6 9 29.82 1010 10 16.0934 0 0
5:52 am 05:52 Mostly Clear 44 6.7 35 1.7 71 71 WSW 3 6 29.83 1010 10 16.0934 0 0
6:52 am 06:52 Mostly Sunny 43 6.1 36 2.2 76 76 W 3 6 29.85 1011 10 16.0934 0 0
7:52 am 07:52 Mostly Sunny 49 9.4 37 2.8 64 64 W 5 7 29.87 1011 10 16.0934 0 0
8:52 am 08:52 Mostly Sunny 51 10.6 38 3.3 61 61 NNW 13 20 29.87 1012 10 16.0934 0 0
9:52 am 09:52 Partly Cloudy 54 12.2 38 3.3 55 55 NNW 13 20 29.86 1011 10 16.0934 0 0
10:52 am 10:52 Partly Cloudy 56 13.3 38 3.3 51 51 VRB 6 9 29.86 1011 10 16.0934 0 0
11:52 am 11:52 Partly Cloudy 59 15 40 4.4 49 49 NNW 8 13 29.85 1011 10 16.0934 0 0
12:52 pm 12:52 Mostly Cloudy 61 16.1 40 4.4 46 46 NW 7 11 29.84 1011 10 16.0934 0 0
1:52 pm 13:52 Mostly Cloudy 60 15.6 39 3.9 46 46 NW 7 11 29.84 1010 10 16.0934 0 0
2:52 pm 14:52 Mostly Cloudy 59 15 39 3.9 48 48 VRB 6 9 29.83 1010 10 16.0934 0 0
3:52 pm 15:52 Cloudy 59 15 39 3.9 48 48 N 12 19 29.82 1010 10 16.0934 0 0
4:52 pm 16:52 Cloudy 59 15 39 3.9 48 48 NNW 10 17 29.82 1010 10 16.0934 0 0
5:52 pm 17:52 Cloudy 60 15.6 39 3.9 46 46 NNW 9 15 29.82 1010 10 16.0934 0 0
6:52 pm 18:52 Mostly Cloudy 58 14.4 37 2.8 46 46 NW 10 17 29.83 1010 10 16.0934 0 0
7:52 pm 19:52 Cloudy 57 13.9 38 3.3 49 49 N 9 15 29.84 1010 10 16.0934 0 0
8:52 pm 20:52 Cloudy 56 13.3 39 3.9 53 53 N 8 13 29.86 1011 10 16.0934 0 0
9:52 pm 21:52 Cloudy 55 12.8 41 5 59 59 N 5 7 29.87 1012 10 16.0934 0 0
10:52 pm 22:52 Mostly Cloudy 54 12.2 39 3.9 57 57 N 7 11 29.88 1012 10 16.0934 0 0
11:52 pm 23:52 Mostly Cloudy 54 12.2 38 3.3 55 55 NNW 7 11 29.89 1012 10 16.0934 0 0

Powered by AerisWeather